Date String (YYYY-MM-DD hh:mm:ss) UTC,Instrument flags,Ambient pressure (hPa),Sample flow (lpm),Bypass flow (lpm),Sample temperature (°C),Ambient temperature (°C),ASC tube jacket temperature (°C),LED temperature (°C),Box temperature (°C),Sample RH (%),Span deviation,Mass concentration (μg/m³),Mass concentration (μg/m³),Mass concentration (μg/m³)
DateTimeUTC,F1_M11,P_M11,Q1_M11,Q2_M11,T1_M11,T2_M11,T3_M11,T4_M11,T5_M11,U1_M11,ZSPAN_M11,X0_M11,X2_M11,X1_M11
2022-09-06 18:00:00,,0832.2,4.99,0.00,29.6,28.3,00.0,38.2,31.5,20.1,0004.3,0026.92,0016.37,0014.94
2022-09-06 18:01:00,,0832.1,5.01,0.00,29.7,28.4,00.0,38.3,31.6,20.0,0004.5,0026.79,0016.39,0014.97
2022-09-06 18:02:00,,0832.1,5.00,0.00,29.7,27.5,00.0,38.3,31.5,19.9,0004.3,0027.03,0016.45,0015.00
2022-09-06 18:03:00,,0832.1,5.00,0.00,29.6,26.9,00.0,38.3,31.5,19.9,0004.3,0026.85,0016.46,0015.07
2022-09-06 18:04:00,,0832.1,5.01,0.00,29.6,27.1,00.0,38.2,31.5,20.4,0005.0,0026.80,0016.46,0015.11
2022-09-06 18:05:00,,0832.0,4.99,0.00,29.6,27.4,00.0,38.2,31.4,19.4,0005.4,0027.20,0016.65,0015.26
2022-09-06 18:06:00,,0832.0,5.00,0.00,29.6,27.6,00.0,38.2,31.3,19.1,0005.6,0027.82,0016.81,0015.42
2022-09-06 18:07:00,,0832.0,5.01,0.00,29.6,27.9,00.0,38.2,31.4,18.0,0004.7,0028.43,0017.04,0015.68
2022-09-06 18:08:00,,0832.0,5.01,0.00,29.6,28.2,00.0,38.2,31.5,18.3,0004.2,0028.55,0017.24,0015.92
2022-09-06 18:09:00,,0832.1,5.00,0.00,29.7,28.3,00.0,38.3,31.5,16.2,0003.2,0028.46,0017.58,0016.27
2022-09-06 18:10:00,,0832.0,4.98,0.00,29.7,27.5,00.0,38.3,31.5,15.9,0003.0,0027.87,0018.02,0016.70
2022-09-06 18:11:00,,0832.1,5.01,0.00,29.6,26.8,00.0,38.2,31.4,17.0,0003.5,0029.37,0018.39,0017.07
2022-09-06 18:12:00,,0832.0,4.99,0.00,29.6,27.0,00.0,38.2,31.4,17.4,0003.6,0029.77,0018.67,0017.36
2022-09-06 18:13:00,,0832.1,5.01,0.00,29.6,27.3,00.0,38.2,31.3,17.3,0003.5,0029.86,0018.91,0017.62
2022-09-06 18:14:00,,0832.0,5.00,0.00,29.6,27.6,00.0,38.2,31.4,17.9,0003.3,0029.46,0019.19,0017.89
2022-09-06 18:15:00,,0832.1,5.01,0.00,29.6,27.8,00.0,38.2,31.4,17.0,0002.9,0030.13,0019.53,0018.21
2022-09-06 18:16:00,,0832.1,5.00,0.00,29.6,28.1,00.0,38.2,31.5,18.5,0002.9,0031.42,0019.67,0018.40
2022-09-06 18:17:00,,0832.0,4.98,0.00,29.6,28.3,00.0,38.2,31.5,18.5,0002.6,0031.55,0019.72,0018.47
2022-09-06 18:18:00,,0832.1,5.01,0.00,29.7,28.0,00.0,38.3,31.6,17.7,0002.9,0030.66,0019.74,0018.51
2022-09-06 18:19:00,,0832.0,5.00,0.00,29.6,27.0,00.0,38.2,31.4,17.5,0003.0,0030.73,0019.77,0018.58
2022-09-06 18:20:00,,0832.1,5.00,0.00,29.6,26.8,00.0,38.2,31.4,16.4,0003.1,0031.21,0019.85,0018.63
2022-09-06 18:21:00,,0832.1,5.01,0.00,29.6,27.1,00.0,38.2,31.4,16.7,0003.2,0031.80,0019.86,0018.61
2022-09-06 18:22:00,,0832.1,5.00,0.00,29.6,27.4,00.0,38.2,31.3,18.6,0002.9,0030.69,0019.80,0018.55
2022-09-06 18:23:00,,0832.1,5.01,0.00,29.6,27.7,00.0,38.2,31.4,19.5,0002.2,0029.83,0019.66,0018.41
2022-09-06 18:24:00,,0832.0,5.00,0.00,29.6,28.0,00.0,38.2,31.4,18.8,0002.1,0029.49,0019.63,0018.37
2022-09-06 18:25:00,,0832.1,4.99,0.00,29.6,28.2,00.0,38.2,31.5,18.5,0002.0,0029.36,0019.58,0018.30
2022-09-06 18:26:00,,0832.1,5.01,0.00,29.7,28.4,00.0,38.2,31.6,18.1,0002.2,0028.85,0019.52,0018.22
2022-09-06 18:27:00,,0832.1,5.00,0.00,29.7,27.6,00.0,38.2,31.5,17.3,0002.8,0028.28,0019.52,0018.21
2022-09-06 18:28:00,,0832.1,5.01,0.00,29.6,26.8,00.0,38.2,31.4,16.9,0003.3,0028.03,0019.62,0018.33
2022-09-06 18:29:00,,0832.1,5.01,0.00,29.6,27.0,00.0,38.2,31.5,16.7,0003.2,0028.42,0019.74,0018.41
2022-09-06 18:30:00,,0832.1,4.99,0.00,29.6,27.3,00.0,38.2,31.4,16.3,0003.3,0029.25,0019.89,0018.54
2022-09-06 18:31:00,,0832.1,5.00,0.00,29.6,27.6,00.0,38.2,31.3,16.7,0003.3,0031.21,0019.90,0018.55
2022-09-06 18:32:00,,0832.1,5.00,0.00,29.6,27.9,00.0,38.2,31.4,15.9,0003.2,0031.27,0019.93,0018.59
2022-09-06 18:33:00,,0832.1,5.01,0.00,29.6,28.1,00.0,38.2,31.5,15.6,0003.0,0031.51,0020.03,0018.69
2022-09-06 18:34:00,,0832.1,5.00,0.00,29.6,28.3,00.0,38.2,31.5,15.7,0003.4,0032.11,0020.34,0018.97
2022-09-06 18:35:00,,0832.0,4.97,0.00,29.7,27.6,00.0,38.2,31.5,15.6,0003.6,0032.16,0020.56,0019.25
2022-09-06 18:36:00,,0832.0,5.00,0.00,29.6,26.8,00.0,38.2,31.4,15.9,0003.7,0032.37,0020.82,0019.48
2022-09-06 18:37:00,,0831.9,5.00,0.00,29.6,27.0,00.0,38.2,31.4,16.5,0003.5,0032.97,0020.91,0019.61
2022-09-06 18:38:00,,0832.0,4.99,0.00,29.6,27.3,00.0,38.2,31.3,15.4,0002.8,0032.83,0021.08,0019.80
2022-09-06 18:39:00,,0832.0,5.00,0.00,29.5,27.6,00.0,38.2,31.3,15.6,0002.1,0033.77,0021.28,0019.95
2022-09-06 18:40:00,,0832.0,5.00,0.00,29.6,27.9,00.0,38.2,31.4,15.9,0002.1,0035.11,0021.35,0020.07
2022-09-06 18:41:00,,0832.0,5.01,0.00,29.6,28.1,00.0,38.2,31.5,16.2,0002.1,0036.46,0021.39,0020.09
2022-09-06 18:42:00,,0832.0,5.00,0.00,29.6,27.9,00.0,38.2,31.5,16.8,0002.2,0034.43,0021.41,0020.08
2022-09-06 18:43:00,,0832.0,4.98,0.00,29.6,26.9,00.0,38.2,31.4,16.7,0002.1,0034.02,0021.39,0020.06
2022-09-06 18:44:00,,0831.9,5.00,0.00,29.6,26.8,00.0,38.2,31.4,16.9,0002.0,0033.75,0021.41,0019.99
2022-09-06 18:45:00,,0831.9,4.99,0.00,29.5,27.1,00.0,38.1,31.4,16.7,0002.0,0033.81,0021.36,0019.92
2022-09-06 18:46:00,,0831.8,5.00,0.00,29.5,27.4,00.0,38.1,31.2,16.4,0002.0,0034.42,0021.30,0019.86
2022-09-06 18:47:00,,0831.8,5.01,0.00,29.5,27.7,00.0,38.1,31.3,16.4,0002.1,0034.18,0021.15,0019.80
2022-09-06 18:48:00,,0831.8,5.01,0.00,29.5,27.9,00.0,38.1,31.4,16.3,0002.4,0035.01,0021.15,0019.84
2022-09-06 18:49:00,,0831.8,4.98,0.00,29.6,28.2,00.0,38.2,31.4,16.2,0002.5,0034.66,0021.14,0019.80
2022-09-06 18:50:00,,0831.8,5.01,0.00,29.6,28.3,00.0,38.2,31.5,16.4,0002.6,0034.13,0021.02,0019.74
2022-09-06 18:51:00,,0831.8,4.99,0.00,29.6,27.5,00.0,38.2,31.4,16.3,0002.8,0033.07,0021.03,0019.71
2022-09-06 18:52:00,,0831.8,5.00,0.00,29.6,26.8,00.0,38.2,31.3,16.5,0002.9,0031.22,0021.02,0019.70
2022-09-06 18:53:00,,0831.7,5.01,0.00,29.5,27.0,00.0,38.2,31.4,16.6,0002.4,0031.67,0021.06,0019.74
2022-09-06 18:54:00,,0831.7,4.99,0.00,29.5,27.3,00.0,38.1,31.3,16.8,0002.8,0031.49,0021.03,0019.74
2022-09-06 18:55:00,,0831.7,5.00,0.00,29.5,27.6,00.0,38.1,31.3,16.7,0003.3,0032.08,0021.01,0019.78
2022-09-06 18:56:00,,0831.7,5.00,0.00,29.5,27.9,00.0,38.1,31.3,16.0,0003.3,0033.48,0021.01,0019.82
2022-09-06 18:57:00,,0831.7,5.01,0.00,29.6,28.1,00.0,38.1,31.4,15.8,0003.5,0032.81,0021.09,0019.89
2022-09-06 18:58:00,,0831.7,4.98,0.00,29.6,28.3,00.0,38.2,31.5,15.6,0003.4,0032.97,0021.24,0020.00
2022-09-06 18:59:00,,0831.7,4.99,0.00,29.6,27.6,00.0,38.2,31.5,15.4,0003.0,0031.73,0021.39,0020.11
